Regional Weather Roundup
Issued by NWS Sioux Falls, SD

Home | Current Version | Previous Version | Text Only | Print | Product List | Glossary Off
Versions: 1 2 3 4 5 6 7 8 9 10 11 12 13 14 15 16 17 18 19 20 21 22 23 24 25 26 27 28 29 30 31 32 33 34 35 36 37 38 39 40 41 42 43 44 45 46 47 48 49 50

000
ASUS43 KFSD 271910
RWRFSD

WEATHER ROUNDUP FOR SE SOUTH DAKOTA/SW MINNESOTA/NW IOWA
NATIONAL WEATHER SERVICE SIOUX FALLS SD
200 PM CDT MON APR 27 2015

NOTE: "FAIR" INDICATES FEW OR NO CLOUDS BELOW 12,000 FEET WITH NO
SIGNIFICANT WEATHER AND OR OBSTRUCTIONS TO VISIBILITY.


SDZ038>040-050-052>070-272000-
SOUTHEAST SOUTH DAKOTA

CITY           SKY/WX    TMP DP  RH WIND       PRES   REMARKS
CHAMBERLAIN    SUNNY     66  31  26 N7        30.21F
HURON          SUNNY     69  23  17 N7        30.20F
MADISON        FAIR      64  21  19 SE10      30.21F
MITCHELL       SUNNY     68  27  21 NE9       30.21F
SIOUX FALLS    PTSUNNY   66  24  20 VRB3      30.20F
WINNER         FAIR      69  29  22 NW9       30.21F
YANKTON        SUNNY     64  30  27 CALM      30.19F
$$

MNZ071-072-080-081-089-090-097-098-272000-
SOUTHWEST MINNESOTA

CITY           SKY/WX    TMP DP  RH WIND       PRES   REMARKS
FAIRMONT       SUNNY     64  27  24 NE13G18   30.19F
JACKSON        SUNNY     64  21  19 N7G18     30.21F
LUVERNE        SUNNY     66  23  19 NE9       30.21F
MARSHALL       SUNNY     64  21  19 E6        30.20F
MONTEVIDEO     SUNNY     72  23  16 SE3       30.21F
REDWOOD FALLS  SUNNY     67  20  16 NE9       30.20F
TRACY          SUNNY     65  22  19 CALM      30.21F
WORTHINGTON    SUNNY     63  25  23 NE5       30.21F
$$

IAZ001>003-012>014-020>022-031-032-NEZ013-014-SDZ071-272000-
NORTHWEST IOWA

CITY           SKY/WX    TMP DP  RH WIND       PRES   REMARKS
CHEROKEE       SUNNY     65  31  27 NE9       30.19F
DENISON        SUNNY     64  30  27 NE7G17    30.16F
ESTHERVILLE    SUNNY     64  29  26 NE16      30.20F
LE MARS        SUNNY     68  25  19 NE8G15    30.20F
ORANGE CITY    SUNNY     64  25  22 E8        30.19F
SHELDON        SUNNY     66  23  19 E12       30.19S
SIOUX CITY     SUNNY     69  27  20 NE10      30.18F
SPENCER        SUNNY     67  29  24 NE14G20   30.20F
STORM LAKE     SUNNY     64  25  22 NE13      30.20S
$$

ABBREVIATIONS USED IN REMARKS
   TC - TEMPERATURE IN CELSIUS
  WCI - WIND CHILL INDEX
   HX - HEAT INDEX
  VSB - VISIBILITY



USA.gov is the U.S. government's official web portal to all federal, state and local government web resources and services.